Location: Hormuz
(27.0871°N, 56.4580°E)
Time: 11:26:58
(UTC+04:30)

ISS - Pass Details

Date: 25 June 2021
Orbit: 419 x 421 km, 51.6° (Epoch: 04 August)

Event Time Altitude Azimuth Distance (km) Brightness Sun altitude
Exits shadow 05:08:37 10° 265° (W) 1,480 -1.5 -9.1°
Maximum altitude 05:11:16 22° 318° (NW) 962 -2.0 -8.6°
Drops below altitude 10° 05:13:59 10° 12° (NNE) 1,495 -0.3 -8.1°
Sets 05:16:23 0° 28° (NNE) 2,361 1.2 -7.7°
